Location: Haulchin
(50.3172°N, 3.4360°E)
Time: 21:40:40
(UTC+00:00)

Cosmos 2333 Rocket - Pass Details

Date: 12 August 2024
Orbit: 838 x 863 km, 70.8° (Epoch: 09 September)

Event Time Altitude Azimuth Distance (km) Brightness Sun altitude
Exits shadow 00:57:18 49° 231° (SW) 1,106 2.4 -23.2°
Maximum altitude 00:58:53 74° 301° (WNW) 900 2.3 -23.1°
Drops below altitude 10° 01:04:41 10° 27° (NNE) 2,514 5.8 -22.9°
Sets 01:07:10 0° 30° (NNE) 3,455 6.8 -22.7°
